Wetterdaten: Samstag, 31.07.2010
Datum Zeit Temp. A. Feuchte A. Luftdruck Regen Wind Richtung Richtung Sonnenschein UV Solar Windben
31.07.2010 00:00 15,0 C 79 % 1015,2 hPa 0,0 mm 0,0 km/h (0 Bft) S-SO 157 0 min 0 UV-I 0 W/m 3,2 km/h (1 Bft)
31.07.2010 00:10 14,8 C 79 % 1015,3 hPa 0,0 mm 0,0 km/h (0 Bft) S-SO 157 0 min 0 UV-I 0 W/m 1,6 km/h (1 Bft)
31.07.2010 00:20 14,6 C 80 % 1015,2 hPa 0,0 mm 0,0 km/h (0 Bft) S-SO 157 0 min 0 UV-I 0 W/m 3,2 km/h (1 Bft)
31.07.2010 00:30 14,5 C 80 % 1015,2 hPa 0,0 mm 0,0 km/h (0 Bft) S-SO 157 0 min 0 UV-I 0 W/m 1,6 km/h (1 Bft)
31.07.2010 00:40 14,4 C 80 % 1015,2 hPa 0,0 mm 0,0 km/h (0 Bft) S-SO 157 0 min 0 UV-I 0 W/m 4,8 km/h (1 Bft)
31.07.2010 00:50 14,3 C 80 % 1015,2 hPa 0,0 mm 0,0 km/h (0 Bft) S-SO 157 0 min 0 UV-I 0 W/m 1,6 km/h (1 Bft)
31.07.2010 01:00 14,3 C 80 % 1015,2 hPa 0,0 mm 0,0 km/h (0 Bft) S-SO 157 0 min 0 UV-I 0 W/m 1,6 km/h (1 Bft)
31.07.2010 01:10 14,1 C 80 % 1015,2 hPa 0,0 mm 0,0 km/h (0 Bft) S-SO 157 0 min 0 UV-I 0 W/m 1,6 km/h (1 Bft)
31.07.2010 01:20 13,8 C 81 % 1015,1 hPa 0,0 mm 0,0 km/h (0 Bft) N 0 0 min 0 UV-I 0 W/m 0,0 km/h (0 Bft)
31.07.2010 01:30 13,8 C 81 % 1015,1 hPa 0,0 mm 0,0 km/h (0 Bft) S-SO 157 0 min 0 UV-I 0 W/m 1,6 km/h (1 Bft)
31.07.2010 01:40 13,8 C 81 % 1015,2 hPa 0,0 mm 0,0 km/h (0 Bft) S-SO 157 0 min 0 UV-I 0 W/m 1,6 km/h (1 Bft)
31.07.2010 01:50 13,7 C 81 % 1015,1 hPa 0,0 mm 0,0 km/h (0 Bft) S-SO 157 0 min 0 UV-I 0 W/m 1,6 km/h (1 Bft)
31.07.2010 02:00 13,4 C 81 % 1015,1 hPa 0,0 mm 0,0 km/h (0 Bft) S-SO 157 0 min 0 UV-I 0 W/m 1,6 km/h (1 Bft)
31.07.2010 02:10 13,4 C 81 % 1015,1 hPa 0,0 mm 0,0 km/h (0 Bft) S-SO 157 0 min 0 UV-I 0 W/m 3,2 km/h (1 Bft)
31.07.2010 02:20 13,2 C 82 % 1015,1 hPa 0,0 mm 0,0 km/h (0 Bft) S-SO 157 0 min 0 UV-I 0 W/m 1,6 km/h (1 Bft)
31.07.2010 02:30 13,2 C 82 % 1015,1 hPa 0,0 mm 0,0 km/h (0 Bft) S-SO 157 0 min 0 UV-I 0 W/m 1,6 km/h (1 Bft)
31.07.2010 02:40 13,2 C 82 % 1015,1 hPa 0,0 mm 0,0 km/h (0 Bft) S-SO 157 0 min 0 UV-I 0 W/m 1,6 km/h (1 Bft)
31.07.2010 02:50 13,3 C 81 % 1015,1 hPa 0,0 mm 0,0 km/h (0 Bft) SO 135 0 min 0 UV-I 0 W/m 6,4 km/h (2 Bft)
31.07.2010 03:00 13,3 C 81 % 1015,0 hPa 0,0 mm 0,0 km/h (0 Bft) SO 135 0 min 0 UV-I 0 W/m 1,6 km/h (1 Bft)
31.07.2010 03:10 13,2 C 81 % 1015,0 hPa 0,0 mm 0,0 km/h (0 Bft) N 0 0 min 0 UV-I 0 W/m 0,0 km/h (0 Bft)
31.07.2010 03:20 13,2 C 81 % 1014,9 hPa 0,0 mm 0,0 km/h (0 Bft) SO 135 0 min 0 UV-I 0 W/m 3,2 km/h (1 Bft)
31.07.2010 03:30 13,2 C 81 % 1014,9 hPa 0,0 mm 0,0 km/h (0 Bft) SO 135 0 min 0 UV-I 0 W/m 1,6 km/h (1 Bft)
31.07.2010 03:40 12,8 C 82 % 1014,9 hPa 0,0 mm 0,0 km/h (0 Bft) SO 135 0 min 0 UV-I 0 W/m 3,2 km/h (1 Bft)
31.07.2010 03:50 12,7 C 83 % 1014,7 hPa 0,0 mm 0,0 km/h (0 Bft) N 0 0 min 0 UV-I 0 W/m 0,0 km/h (0 Bft)
31.07.2010 04:00 12,6 C 83 % 1014,7 hPa 0,0 mm 0,0 km/h (0 Bft) SO 135 0 min 0 UV-I 0 W/m 1,6 km/h (1 Bft)
31.07.2010 04:10 12,4 C 83 % 1014,5 hPa 0,0 mm 0,0 km/h (0 Bft) SO 135 0 min 0 UV-I 0 W/m 1,6 km/h (1 Bft)
31.07.2010 04:20 12,4 C 84 % 1014,5 hPa 0,0 mm 0,0 km/h (0 Bft) SO 135 0 min 0 UV-I 0 W/m 3,2 km/h (1 Bft)
31.07.2010 04:30 12,4 C 84 % 1014,5 hPa 0,0 mm 0,0 km/h (0 Bft) SO 135 0 min 0 UV-I 0 W/m 1,6 km/h (1 Bft)
31.07.2010 04:40 12,4 C 84 % 1014,4 hPa 0,0 mm 0,0 km/h (0 Bft) SO 135 0 min 0 UV-I 0 W/m 3,2 km/h (1 Bft)
31.07.2010 04:50 12,6 C 84 % 1014,4 hPa 0,0 mm 0,0 km/h (0 Bft) SO 135 0 min 0 UV-I 0 W/m 4,8 km/h (1 Bft)
31.07.2010 05:00 12,8 C 83 % 1014,3 hPa 0,0 mm 0,0 km/h (0 Bft) S-SO 157 0 min 0 UV-I 0 W/m 6,4 km/h (2 Bft)
31.07.2010 05:10 13,1 C 82 % 1014,3 hPa 0,0 mm 1,6 km/h (1 Bft) SO 135 0 min 0 UV-I 0 W/m 8,0 km/h (2 Bft)
31.07.2010 05:20 13,3 C 81 % 1014,3 hPa 0,0 mm 0,0 km/h (0 Bft) SO 135 0 min 0 UV-I 0 W/m 4,8 km/h (1 Bft)
31.07.2010 05:30 13,2 C 81 % 1014,3 hPa 0,0 mm 0,0 km/h (0 Bft) SO 135 0 min 0 UV-I 0 W/m 1,6 km/h (1 Bft)
31.07.2010 05:40 13,5 C 80 % 1014,3 hPa 0,0 mm 0,0 km/h (0 Bft) S-SO 157 0 min 0 UV-I 5 W/m 6,4 km/h (2 Bft)
31.07.2010 05:50 13,7 C 80 % 1014,3 hPa 0,0 mm 1,6 km/h (1 Bft) S-SO 157 0 min 0 UV-I 7 W/m 6,4 km/h (2 Bft)
31.07.2010 06:00 13,6 C 80 % 1014,3 hPa 0,0 mm 0,0 km/h (0 Bft) S-SO 157 0 min 0 UV-I 9 W/m 1,6 km/h (1 Bft)
31.07.2010 06:10 13,6 C 80 % 1014,3 hPa 0,0 mm 0,0 km/h (0 Bft) S-SO 157 0 min 0 UV-I 16 W/m 4,8 km/h (1 Bft)
31.07.2010 06:20 13,7 C 80 % 1014,3 hPa 0,0 mm 0,0 km/h (0 Bft) S-SO 157 0 min 0 UV-I 18 W/m 3,2 km/h (1 Bft)
31.07.2010 06:30 13,8 C 80 % 1014,5 hPa 0,0 mm 0,0 km/h (0 Bft) S-SO 157 0 min 0 UV-I 19 W/m 4,8 km/h (1 Bft)
31.07.2010 06:40 13,8 C 80 % 1014,4 hPa 0,0 mm 0,0 km/h (0 Bft) S-SO 157 0 min 0 UV-I 23 W/m 3,2 km/h (1 Bft)
31.07.2010 06:50 13,9 C 80 % 1014,4 hPa 0,0 mm 0,0 km/h (0 Bft) S-SO 157 0 min 0 UV-I 47 W/m 1,6 km/h (1 Bft)
31.07.2010 07:00 14,3 C 79 % 1014,4 hPa 0,0 mm 0,0 km/h (0 Bft) S-SO 157 0 min 0 UV-I 69 W/m 3,2 km/h (1 Bft)
31.07.2010 07:10 14,8 C 78 % 1014,5 hPa 0,0 mm 0,0 km/h (0 Bft) S-SO 157 0 min 0 UV-I 93 W/m 4,8 km/h (1 Bft)
31.07.2010 07:20 15,3 C 76 % 1014,6 hPa 0,0 mm 0,0 km/h (0 Bft) S-SO 157 0 min 1 UV-I 111 W/m 3,2 km/h (1 Bft)
31.07.2010 07:30 15,6 C 76 % 1014,5 hPa 0,0 mm 0,0 km/h (0 Bft) S-SO 157 0 min 1 UV-I 98 W/m 4,8 km/h (1 Bft)
31.07.2010 07:40 15,8 C 77 % 1014,6 hPa 0,0 mm 0,0 km/h (0 Bft) SO 135 10 min 1 UV-I 165 W/m 6,4 km/h (2 Bft)
31.07.2010 07:50 16,1 C 76 % 1014,6 hPa 0,0 mm 1,6 km/h (1 Bft) SO 135 0 min 1 UV-I 125 W/m 4,8 km/h (1 Bft)
31.07.2010 08:00 16,4 C 76 % 1014,6 hPa 0,0 mm 0,0 km/h (0 Bft) SO 135 0 min 1 UV-I 141 W/m 4,8 km/h (1 Bft)
31.07.2010 08:10 16,8 C 74 % 1014,6 hPa 0,0 mm 0,0 km/h (0 Bft) SO 135 10 min 1 UV-I 209 W/m 4,8 km/h (1 Bft)
31.07.2010 08:20 17,3 C 72 % 1014,6 hPa 0,0 mm 0,0 km/h (0 Bft) SO 135 10 min 1 UV-I 385 W/m 4,8 km/h (1 Bft)
31.07.2010 08:30 18,1 C 69 % 1014,6 hPa 0,0 mm 1,6 km/h (1 Bft) S-SW 202 10 min 1 UV-I 369 W/m 8,0 km/h (2 Bft)
31.07.2010 08:40 19,0 C 65 % 1014,6 hPa 0,0 mm 1,6 km/h (1 Bft) S 180 10 min 2 UV-I 401 W/m 8,0 km/h (2 Bft)
31.07.2010 08:50 19,7 C 63 % 1014,6 hPa 0,0 mm 3,2 km/h (1 Bft) SO 135 10 min 2 UV-I 468 W/m 9,7 km/h (2 Bft)
31.07.2010 09:00 19,8 C 62 % 1014,6 hPa 0,0 mm 3,2 km/h (1 Bft) S-SW 202 10 min 2 UV-I 485 W/m 11,3 km/h (2 Bft)
31.07.2010 09:10 19,9 C 61 % 1014,7 hPa 0,0 mm 3,2 km/h (1 Bft) S-SW 202 10 min 2 UV-I 388 W/m 17,7 km/h (3 Bft)
31.07.2010 09:20 20,8 C 60 % 1014,7 hPa 0,0 mm 1,6 km/h (1 Bft) S 180 10 min 3 UV-I 577 W/m 6,4 km/h (2 Bft)
31.07.2010 09:30 20,6 C 60 % 1014,5 hPa 0,0 mm 3,2 km/h (1 Bft) S 180 10 min 2 UV-I 315 W/m 9,7 km/h (2 Bft)
31.07.2010 09:40 20,7 C 58 % 1014,6 hPa 0,0 mm 1,6 km/h (1 Bft) S 180 10 min 2 UV-I 397 W/m 9,7 km/h (2 Bft)
31.07.2010 09:50 21,1 C 57 % 1014,5 hPa 0,0 mm 3,2 km/h (1 Bft) S-SW 202 10 min 3 UV-I 499 W/m 11,3 km/h (2 Bft)
31.07.2010 10:00 21,3 C 57 % 1014,5 hPa 0,0 mm 1,6 km/h (1 Bft) S-SW 202 10 min 3 UV-I 352 W/m 9,7 km/h (2 Bft)
31.07.2010 10:10 21,8 C 57 % 1014,6 hPa 0,0 mm 3,2 km/h (1 Bft) S-SW 202 10 min 3 UV-I 429 W/m 14,5 km/h (3 Bft)
31.07.2010 10:20 21,9 C 54 % 1014,7 hPa 0,0 mm 3,2 km/h (1 Bft) SW 225 10 min 3 UV-I 383 W/m 9,7 km/h (2 Bft)
31.07.2010 10:30 22,0 C 53 % 1014,6 hPa 0,0 mm 3,2 km/h (1 Bft) SW 225 10 min 3 UV-I 457 W/m 16,1 km/h (3 Bft)
31.07.2010 10:40 22,3 C 52 % 1014,4 hPa 0,0 mm 3,2 km/h (1 Bft) S-SW 202 10 min 4 UV-I 490 W/m 12,9 km/h (3 Bft)
31.07.2010 10:50 22,9 C 52 % 1014,3 hPa 0,0 mm 3,2 km/h (1 Bft) S-SW 202 10 min 5 UV-I 687 W/m 14,5 km/h (3 Bft)
31.07.2010 11:00 23,7 C 48 % 1014,3 hPa 0,0 mm 4,1 km/h (1 Bft) W-SW 248 10 min 5 UV-I 693 W/m 14,5 km/h (3 Bft)
31.07.2010 11:10 23,7 C 47 % 1014,3 hPa 0,0 mm 5,1 km/h (1 Bft) W-SW 240 10 min 5 UV-I 592 W/m 16,1 km/h (3 Bft)
31.07.2010 11:20 23,3 C 48 % 1014,2 hPa 0,0 mm 6,2 km/h (2 Bft) W-SW 240 10 min 4 UV-I 485 W/m 17,7 km/h (3 Bft)
31.07.2010 11:30 23,6 C 47 % 1014,2 hPa 0,0 mm 7,7 km/h (2 Bft) SW 222 10 min 5 UV-I 597 W/m 24,1 km/h (4 Bft)
31.07.2010 11:40 23,4 C 48 % 1014,3 hPa 0,0 mm 6,9 km/h (2 Bft) SW 219 10 min 4 UV-I 491 W/m 19,3 km/h (3 Bft)
31.07.2010 11:50 23,5 C 48 % 1014,4 hPa 0,0 mm 7,5 km/h (2 Bft) SW 223 10 min 4 UV-I 496 W/m 22,5 km/h (4 Bft)
31.07.2010 12:00 23,8 C 48 % 1014,3 hPa 0,0 mm 6,4 km/h (2 Bft) W-SW 255 10 min 5 UV-I 521 W/m 16,1 km/h (3 Bft)
31.07.2010 12:10 24,0 C 47 % 1014,3 hPa 0,0 mm 5,6 km/h (1 Bft) SW 226 10 min 5 UV-I 518 W/m 17,7 km/h (3 Bft)
31.07.2010 12:20 24,2 C 48 % 1014,3 hPa 0,0 mm 4,9 km/h (1 Bft) SW 218 10 min 5 UV-I 510 W/m 16,1 km/h (3 Bft)
31.07.2010 12:30 23,9 C 45 % 1014,3 hPa 0,0 mm 7,8 km/h (2 Bft) SW 218 10 min 5 UV-I 484 W/m 22,5 km/h (4 Bft)
31.07.2010 12:40 23,7 C 48 % 1014,3 hPa 0,0 mm 6,4 km/h (2 Bft) W-SW 252 0 min 4 UV-I 432 W/m 20,9 km/h (4 Bft)
31.07.2010 12:50 23,5 C 48 % 1014,3 hPa 0,0 mm 8,9 km/h (2 Bft) W 277 10 min 5 UV-I 497 W/m 20,9 km/h (4 Bft)
31.07.2010 13:00 23,7 C 49 % 1014,2 hPa 0,0 mm 7,7 km/h (2 Bft) W-SW 248 10 min 5 UV-I 542 W/m 22,5 km/h (4 Bft)
31.07.2010 13:10 24,2 C 47 % 1014,1 hPa 0,0 mm 6,4 km/h (2 Bft) W-SW 252 10 min 6 UV-I 618 W/m 19,3 km/h (3 Bft)
31.07.2010 13:20 24,0 C 48 % 1014,0 hPa 0,0 mm 8,0 km/h (2 Bft) W-SW 247 10 min 6 UV-I 650 W/m 20,9 km/h (4 Bft)
31.07.2010 13:30 23,6 C 48 % 1014,1 hPa 0,0 mm 10,0 km/h (2 Bft) W 275 0 min 4 UV-I 338 W/m 24,1 km/h (4 Bft)
31.07.2010 13:40 23,5 C 49 % 1014,0 hPa 0,0 mm 9,7 km/h (2 Bft) W 270 0 min 4 UV-I 390 W/m 22,5 km/h (4 Bft)
31.07.2010 13:50 23,7 C 49 % 1014,0 hPa 0,0 mm 8,0 km/h (2 Bft) W-SW 247 10 min 5 UV-I 454 W/m 19,3 km/h (3 Bft)
31.07.2010 14:00 23,8 C 48 % 1014,0 hPa 0,0 mm 9,7 km/h (2 Bft) W-SW 247 0 min 4 UV-I 443 W/m 22,5 km/h (4 Bft)
31.07.2010 14:10 23,6 C 49 % 1013,9 hPa 0,0 mm 9,7 km/h (2 Bft) W 270 0 min 4 UV-I 385 W/m 27,4 km/h (4 Bft)
31.07.2010 14:20 23,5 C 50 % 1013,8 hPa 0,0 mm 8,0 km/h (2 Bft) W-SW 247 0 min 4 UV-I 404 W/m 22,5 km/h (4 Bft)
31.07.2010 14:30 23,5 C 49 % 1013,8 hPa 0,0 mm 8,0 km/h (2 Bft) W 270 10 min 6 UV-I 613 W/m 22,5 km/h (4 Bft)
31.07.2010 14:40 24,1 C 48 % 1013,8 hPa 0,0 mm 6,4 km/h (2 Bft) W 270 10 min 6 UV-I 691 W/m 17,7 km/h (3 Bft)
31.07.2010 14:50 24,3 C 48 % 1013,6 hPa 0,0 mm 8,0 km/h (2 Bft) SW 225 10 min 5 UV-I 638 W/m 25,7 km/h (4 Bft)
31.07.2010 15:00 24,3 C 49 % 1013,6 hPa 0,0 mm 6,4 km/h (2 Bft) W-SW 247 10 min 4 UV-I 468 W/m 16,1 km/h (3 Bft)
31.07.2010 15:10 24,2 C 49 % 1013,6 hPa 0,0 mm 6,4 km/h (2 Bft) W 270 10 min 4 UV-I 494 W/m 19,3 km/h (3 Bft)
31.07.2010 15:20 24,0 C 48 % 1013,5 hPa 0,0 mm 8,0 km/h (2 Bft) W 270 10 min 4 UV-I 448 W/m 25,7 km/h (4 Bft)
31.07.2010 15:30 23,9 C 48 % 1013,5 hPa 0,0 mm 6,4 km/h (2 Bft) S-SW 202 0 min 3 UV-I 323 W/m 17,7 km/h (3 Bft)
31.07.2010 15:40 23,9 C 50 % 1013,4 hPa 0,0 mm 6,4 km/h (2 Bft) S-SW 202 0 min 2 UV-I 243 W/m 16,1 km/h (3 Bft)
31.07.2010 15:50 23,4 C 49 % 1013,5 hPa 0,0 mm 3,2 km/h (1 Bft) SW 225 0 min 2 UV-I 241 W/m 14,5 km/h (3 Bft)
31.07.2010 16:00 23,5 C 48 % 1013,5 hPa 0,0 mm 4,8 km/h (1 Bft) SW 225 0 min 2 UV-I 234 W/m 16,1 km/h (3 Bft)
31.07.2010 16:10 23,7 C 48 % 1013,4 hPa 0,0 mm 4,8 km/h (1 Bft) S-SW 202 0 min 2 UV-I 206 W/m 16,1 km/h (3 Bft)
31.07.2010 16:20 23,6 C 49 % 1013,3 hPa 0,0 mm 3,2 km/h (1 Bft) SW 225 0 min 2 UV-I 214 W/m 19,3 km/h (3 Bft)
31.07.2010 16:30 23,7 C 47 % 1013,3 hPa 0,0 mm 4,8 km/h (1 Bft) SW 225 0 min 2 UV-I 322 W/m 17,7 km/h (3 Bft)
31.07.2010 16:40 24,3 C 46 % 1013,1 hPa 0,0 mm 3,2 km/h (1 Bft) S-SW 202 10 min 3 UV-I 499 W/m 16,1 km/h (3 Bft)
31.07.2010 16:50 24,9 C 45 % 1013,0 hPa 0,0 mm 3,2 km/h (1 Bft) SW 225 10 min 3 UV-I 408 W/m 14,5 km/h (3 Bft)
31.07.2010 17:00 24,8 C 46 % 1012,9 hPa 0,0 mm 3,2 km/h (1 Bft) SW 225 0 min 3 UV-I 322 W/m 11,3 km/h (2 Bft)
31.07.2010 17:10 24,7 C 44 % 1012,9 hPa 0,0 mm 4,8 km/h (1 Bft) S-SW 202 10 min 3 UV-I 512 W/m 16,1 km/h (3 Bft)
31.07.2010 17:20 25,3 C 44 % 1012,9 hPa 0,0 mm 4,8 km/h (1 Bft) S-SW 202 10 min 3 UV-I 543 W/m 16,1 km/h (3 Bft)
31.07.2010 17:30 25,8 C 43 % 1012,7 hPa 0,0 mm 6,4 km/h (2 Bft) S-SW 202 10 min 3 UV-I 529 W/m 19,3 km/h (3 Bft)
31.07.2010 17:40 25,7 C 43 % 1012,7 hPa 0,0 mm 6,4 km/h (2 Bft) S-SW 202 10 min 2 UV-I 480 W/m 19,3 km/h (3 Bft)
31.07.2010 17:50 24,9 C 45 % 1012,6 hPa 0,0 mm 3,2 km/h (1 Bft) SW 225 0 min 2 UV-I 211 W/m 14,5 km/h (3 Bft)
31.07.2010 18:00 24,8 C 46 % 1012,6 hPa 0,0 mm 3,2 km/h (1 Bft) W-SW 247 0 min 2 UV-I 250 W/m 11,3 km/h (2 Bft)
31.07.2010 18:10 24,7 C 46 % 1012,6 hPa 0,0 mm 3,2 km/h (1 Bft) S-SW 202 0 min 1 UV-I 151 W/m 9,7 km/h (2 Bft)
31.07.2010 18:20 24,6 C 47 % 1012,7 hPa 0,0 mm 3,2 km/h (1 Bft) SW 225 0 min 1 UV-I 142 W/m 8,0 km/h (2 Bft)
31.07.2010 18:30 24,5 C 47 % 1012,6 hPa 0,0 mm 3,2 km/h (1 Bft) SW 225 0 min 1 UV-I 144 W/m 11,3 km/h (2 Bft)
31.07.2010 18:40 24,4 C 47 % 1012,7 hPa 0,0 mm 1,6 km/h (1 Bft) S-SW 202 0 min 1 UV-I 95 W/m 9,7 km/h (2 Bft)
31.07.2010 18:50 24,2 C 48 % 1012,6 hPa 0,0 mm 1,6 km/h (1 Bft) S-SW 202 0 min 1 UV-I 74 W/m 8,0 km/h (2 Bft)
31.07.2010 19:00 24,1 C 48 % 1012,5 hPa 0,0 mm 1,6 km/h (1 Bft) SW 225 0 min 1 UV-I 74 W/m 9,7 km/h (2 Bft)
31.07.2010 19:10 24,0 C 48 % 1012,4 hPa 0,0 mm 0,0 km/h (0 Bft) SW 225 0 min 1 UV-I 70 W/m 3,2 km/h (1 Bft)
31.07.2010 19:20 23,9 C 50 % 1012,5 hPa 0,0 mm 0,0 km/h (0 Bft) S-SW 202 0 min 0 UV-I 63 W/m 6,4 km/h (2 Bft)
31.07.2010 19:30 23,8 C 49 % 1012,4 hPa 0,0 mm 0,0 km/h (0 Bft) S-SO 157 0 min 0 UV-I 51 W/m 4,8 km/h (1 Bft)
31.07.2010 19:40 23,6 C 52 % 1012,4 hPa 0,0 mm 0,0 km/h (0 Bft) S-SO 157 0 min 0 UV-I 56 W/m 3,2 km/h (1 Bft)
31.07.2010 19:50 23,6 C 51 % 1012,3 hPa 0,0 mm 0,0 km/h (0 Bft) S-SO 157 0 min 0 UV-I 97 W/m 4,8 km/h (1 Bft)
31.07.2010 20:00 23,6 C 53 % 1012,3 hPa 0,0 mm 0,0 km/h (0 Bft) S-SO 157 0 min 0 UV-I 74 W/m 1,6 km/h (1 Bft)
31.07.2010 20:10 23,4 C 52 % 1012,3 hPa 0,0 mm 0,0 km/h (0 Bft) S-SO 157 0 min 0 UV-I 72 W/m 1,6 km/h (1 Bft)
31.07.2010 20:20 23,3 C 54 % 1012,4 hPa 0,0 mm 0,0 km/h (0 Bft) S-SO 157 0 min 0 UV-I 33 W/m 3,2 km/h (1 Bft)
31.07.2010 20:30 23,1 C 53 % 1012,3 hPa 0,0 mm 0,0 km/h (0 Bft) S-SO 157 0 min 0 UV-I 42 W/m 4,8 km/h (1 Bft)
31.07.2010 20:40 23,1 C 53 % 1012,3 hPa 0,0 mm 0,0 km/h (0 Bft) S-SO 157 0 min 0 UV-I 21 W/m 3,2 km/h (1 Bft)
31.07.2010 20:50 22,8 C 54 % 1012,2 hPa 0,0 mm 0,0 km/h (0 Bft) SO 135 0 min 0 UV-I 9 W/m 3,2 km/h (1 Bft)
31.07.2010 21:00 22,7 C 53 % 1012,2 hPa 0,0 mm 0,0 km/h (0 Bft) S-SO 157 0 min 0 UV-I 0 W/m 3,2 km/h (1 Bft)
31.07.2010 21:10 22,6 C 54 % 1012,4 hPa 0,0 mm 0,0 km/h (0 Bft) S-SO 157 0 min 0 UV-I 0 W/m 3,2 km/h (1 Bft)
31.07.2010 21:20 22,5 C 55 % 1012,4 hPa 0,0 mm 0,0 km/h (0 Bft) S-SO 157 0 min 0 UV-I 0 W/m 4,8 km/h (1 Bft)
31.07.2010 21:30 22,4 C 55 % 1012,4 hPa 0,0 mm 0,0 km/h (0 Bft) S-SO 157 0 min 0 UV-I 0 W/m 6,4 km/h (2 Bft)
31.07.2010 21:40 22,3 C 55 % 1012,4 hPa 0,0 mm 0,0 km/h (0 Bft) S-SO 157 0 min 0 UV-I 0 W/m 4,8 km/h (1 Bft)
31.07.2010 21:50 22,3 C 55 % 1012,4 hPa 0,0 mm 0,0 km/h (0 Bft) S-SO 157 0 min 0 UV-I 0 W/m 6,4 km/h (2 Bft)
31.07.2010 22:00 22,2 C 55 % 1012,5 hPa 0,0 mm 0,0 km/h (0 Bft) S 180 0 min 0 UV-I 0 W/m 4,8 km/h (1 Bft)
31.07.2010 22:10 22,3 C 55 % 1012,5 hPa 0,0 mm 1,6 km/h (1 Bft) S-SW 202 0 min 0 UV-I 0 W/m 8,0 km/h (2 Bft)
31.07.2010 22:20 22,3 C 55 % 1012,9 hPa 0,0 mm 0,0 km/h (0 Bft) S-SW 202 0 min 0 UV-I 0 W/m 4,8 km/h (1 Bft)
31.07.2010 22:30 22,1 C 56 % 1012,9 hPa 0,0 mm 1,6 km/h (1 Bft) W 270 0 min 0 UV-I 0 W/m 8,0 km/h (2 Bft)
31.07.2010 22:40 22,0 C 57 % 1012,9 hPa 0,0 mm 0,0 km/h (0 Bft) W-SW 247 0 min 0 UV-I 0 W/m 4,8 km/h (1 Bft)
31.07.2010 22:50 21,9 C 58 % 1013,1 hPa 0,0 mm 0,0 km/h (0 Bft) W-SW 247 0 min 0 UV-I 0 W/m 3,2 km/h (1 Bft)
31.07.2010 23:00 21,7 C 58 % 1013,1 hPa 0,0 mm 0,0 km/h (0 Bft) W-SW 247 0 min 0 UV-I 0 W/m 3,2 km/h (1 Bft)
31.07.2010 23:10 21,6 C 59 % 1013,0 hPa 0,0 mm 0,0 km/h (0 Bft) W-SW 247 0 min 0 UV-I 0 W/m 1,6 km/h (1 Bft)
31.07.2010 23:20 21,4 C 60 % 1012,9 hPa 0,0 mm 0,0 km/h (0 Bft) N 0 0 min 0 UV-I 0 W/m 0,0 km/h (0 Bft)
31.07.2010 23:30 21,4 C 60 % 1012,9 hPa 0,0 mm 0,0 km/h (0 Bft) W-SW 247 0 min 0 UV-I 0 W/m 1,6 km/h (1 Bft)
31.07.2010 23:40 21,2 C 61 % 1012,8 hPa 0,0 mm 0,0 km/h (0 Bft) N 0 0 min 0 UV-I 0 W/m 0,0 km/h (0 Bft)
31.07.2010 23:50 21,1 C 62 % 1012,5 hPa 0,0 mm 0,0 km/h (0 Bft) N 0 0 min 0 UV-I 0 W/m 0,0 km/h (0 Bft)
_ Min-Zeit 04:20 17:30 20:50 - 00:00 - - - - - 01:20
Minimum _ 12,3 C 43 % 1012,2 hPa - 0,0 km/h (0 Bft) - - - - - 0,0 km/h (0 Bft)
_ Max-Zeit 17:30 04:20 00:10 00:00 13:30 - - 07:40 13:20 11:00 14:10
Maximum _ 26,0 C 84 % 1015,3 hPa 0,0 mm 10,0 km/h
W (2 Bft)
- - 10 min 6 UV-I 693 W/m 27,4 km/h
W (4 Bft)
Durchschnitt _ 19,8 C 62 % 1013,9 hPa #0,0 mm 2,3 km/h (1 Bft) S-SW - #7:30 h 3 UV-I 315 W/m 9,1 km/h (2 Bft)